Theta_e
329 329 326 324 323 323 319 313 312 312 309 310 308 307 305 303 302 301 304 312 315 317 320 320 321 321 320 319 319 321 322 322 322 323 325 325 325 326 322 322 322 321 322
323 321 320 318 318 317 316 313 312 309 311 310 307 307 306 305 302 300 299 302 310 307 311 314 317 318 320 321 320 320 320 320 320 320 321 321 322 324 325 322 322 321 321
318 317 316 314 314 314 314 312 309 309 307 307 306 307 305 300 299 299 298 297 298 302 304 307 310 313 315 318 319 319 319 318 317 317 317 318 318 320 322 323 324 322 321
313 312 312 311 312 311 309 305 302 299 298 299 299 300 298 298 296 293 294 293 292 294 294 302 303 307 310 313 317 317 317 317 314 313 313 313 314 316 318 319 321 323 325
307 305 302 303 303 303 300 297 294 295 295 296 300 298 295 295 293 291 290 290 289 289 289 294 298 300 305 308 310 312 312 311 310 309 309 309 310 311 312 314 317 319 321
300 298 297 297 298 298 296 293 290 290 291 295 298 296 295 293 290 288 287 289 287 287 288 286 287 290 299 301 304 308 310 310 308 307 306 306 307 308 309 311 312 314 317
296 294 292 291 292 293 292 292 289 287 287 288 294 293 292 290 288 286 284 285 285 285 286 285 285 287 289 298 302 306 307 306 305 304 303 304 305 306 307 308 310 311 312
290 289 289 288 288 287 286 287 288 287 285 284 291 291 288 289 287 284 283 283 282 283 284 284 284 286 286 288 295 299 300 301 301 301 302 302 303 304 305 307 308 309 310
288 288 287 286 286 286 284 284 285 285 283 283 283 288 282 283 283 287 282 280 281 281 281 282 284 285 286 287 288 289 295 297 298 299 299 300 301 302 303 304 305 306 308
286 287 286 286 285 285 284 283 283 283 283 281 282 283 280 282 277 276 278 279 280 281 280 280 281 283 285 284 286 289 291 293 294 295 296 297 298 300 301 302 303 304 306
285 285 285 284 284 283 282 282 282 281 281 280 280 279 278 278 277 276 274 276 278 279 279 280 280 281 282 282 282 285 289 290 291 291 292 294 295 297 299 300 301 302 303
283 283 283 283 282 282 281 281 280 280 280 279 279 279 278 276 276 275 274 275 275 277 278 279 279 280 280 280 283 286 287 288 289 290 291 291 293 294 296 297 298 300 300
280 281 282 281 281 281 281 280 280 279 279 278 278 278 279 278 278 278 277 275 274 276 278 278 278 279 281 279 280 284 284 285 287 288 289 289 291 292 293 295 296 298 299
281 280 280 280 280 280 280 279 279 279 278 278 278 278 278 279 279 279 278 276 273 274 275 276 277 278 278 278 280 283 279 282 285 287 287 288 289 290 291 293 294 294 295
281 280 280 279 279 279 279 279 278 278 277 278 277 278 278 278 278 277 278 277 275 271 272 274 275 277 277 278 279 278 277 280 284 285 285 286 287 288 289 290 291 292 293
280 279 279 279 279 279 279 278 277 277 277 276 277 276 276 277 276 276 276 276 276 273 271 274 274 275 276 277 278 277 277 280 280 282 283 285 286 287 287 288 288 290 291
279 279 279 279 279 278 278 277 277 277 277 276 276 276 276 276 275 274 275 275 274 274 271 273 274 275 274 274 275 276 276 276 276 280 282 284 285 285 286 286 287 288 288
279 279 279 278 278 278 277 276 276 276 276 276 276 276 275 277 274 274 274 273 273 273 272 271 273 273 273 274 274 274 276 277 276 279 282 283 284 284 284 285 285 286 286
279 279 279 278 277 277 277 277 277 277 276 276 276 276 275 275 274 274 273 273 272 274 272 272 271 273 273 274 274 275 275 276 277 280 281 282 282 283 283 284 284 284 284
279 278 278 278 277 277 277 277 277 276 276 276 277 276 276 275 274 273 273 273 273 272 272 272 271 272 273 274 274 273 273 275 275 277 279 280 281 281 282 283 283 282 282
279 278 277 277 277 276 277 276 276 276 275 275 276 276 276 276 278 277 274 273 273 271 272 271 271 271 272 273 272 274 273 274 275 276 275 276 276 276 277 279 280 280 282
277 277 277 276 275 277 280 282 278 276 276 275 275 275 275 275 277 280 280 280 278 270 260 263 272 272 273 273 274 273 272 272 268 274 272 271 274 274 275 276 280 281 282
278 277 276 275 274 275 282 283 283 276 275 275 275 275 275 275 274 274 276 278 278 278 279 276 274 273 273 274 273 273 271 270 269 271 271 269 272 272 274 276 279 281 281
277 276 275 275 274 275 281 283 283 276 275 275 274 274 274 274 274 273 273 272 273 273 274 275 275 275 275 276 275 273 271 269 269 270 271 266 270 270 273 272 277 278 280
276 275 275 273 274 273 281 283 282 275 275 274 274 274 273 273 276 278 275 271 272 274 278 280 280 279 278 277 275 270 264 264 263 266 269 268 269 268 270 270 273 277 278
277 276 275 274 273 271 279 282 282 275 270 273 273 274 276 275 277 278 275 272 270 272 272 268 269 270 271 270 272 270 268 263 264 262 269 266 267 267 265 269 272 271 273
Wind_Speed
6 4 4 4 3 3 3 4 4 4 5 5 5 6 6 7 8 5 5 18 19 21 22 21 20 19 19 18 18 18 19 20 21 21 25 11 13 17 10 10 11 10 10
5 5 5 4 4 3 3 3 4 4 4 4 5 6 6 8 9 9 6 7 22 23 21 21 20 20 19 18 18 18 18 19 21 22 22 20 22 22 16 13 11 11 11
6 6 5 5 3 4 4 4 5 5 5 5 7 6 7 9 9 10 8 7 7 19 25 23 22 22 21 19 18 17 18 19 19 20 22 22 22 22 24 23 14 13 13
7 6 5 4 3 4 4 4 4 5 5 5 4 5 6 8 10 9 8 7 5 6 13 21 23 22 22 22 23 21 19 21 21 22 22 23 23 23 23 22 22 19 22
8 7 5 4 5 5 5 4 5 4 4 4 6 5 5 6 6 7 9 9 8 6 6 15 19 22 23 23 22 21 21 21 22 23 24 24 25 24 23 23 22 23 23
6 7 5 5 4 5 5 5 6 6 4 4 8 7 6 5 6 7 6 6 7 7 6 8 6 8 21 22 21 20 21 22 23 23 25 26 25 26 25 24 24 23 23
6 6 5 6 4 5 5 4 4 7 7 4 5 6 6 5 6 5 4 5 7 6 7 6 5 5 6 19 21 21 23 23 24 26 27 26 27 26 26 25 24 24 24
6 6 6 6 6 6 6 4 4 4 4 5 3 3 3 1 3 4 4 5 6 4 7 7 7 8 7 6 15 22 25 26 27 27 27 27 26 26 26 27 27 26 25
7 7 6 7 6 5 5 4 4 6 5 4 7 4 3 2 2 2 4 4 6 5 5 6 8 8 8 7 11 15 25 25 26 26 26 27 27 27 27 26 27 27 26
7 6 7 7 7 5 7 5 4 4 4 4 3 6 7 3 3 3 2 3 5 6 6 5 5 5 7 7 13 19 23 25 25 25 27 27 27 28 28 27 27 26 27
6 6 6 7 7 6 6 6 6 7 4 4 3 2 5 4 5 3 3 5 4 5 2 3 4 4 7 8 8 13 24 25 25 26 27 27 27 27 27 27 26 27 27
4 6 7 6 5 7 6 6 6 7 6 6 4 5 3 3 2 3 1 2 2 4 4 3 3 4 4 7 11 19 21 22 25 26 26 27 27 27 27 28 28 27 27
4 5 6 6 5 6 6 6 6 6 5 5 5 4 4 3 3 2 2 2 2 3 4 3 2 3 5 4 6 19 18 23 24 25 26 27 27 27 27 28 27 26 27
7 6 6 6 7 7 6 6 4 4 5 5 8 5 4 3 2 2 2 1 3 2 2 4 1 2 4 5 11 19 9 22 24 25 24 25 26 27 27 28 29 28 28
7 7 7 8 7 7 6 6 4 5 5 5 5 5 4 3 3 2 2 2 2 3 3 3 3 2 5 7 10 10 11 19 25 25 25 25 26 26 27 27 27 28 28
8 9 8 7 7 7 6 6 5 5 6 4 4 6 4 3 3 2 2 1 1 3 4 2 3 3 5 7 11 11 11 21 20 23 25 26 26 26 27 26 27 27 28
9 9 8 8 7 7 6 6 5 6 6 6 4 5 5 4 3 2 1 1 1 2 4 4 2 5 5 9 10 10 11 10 9 21 25 25 27 27 27 26 26 27 27
8 9 9 8 7 7 7 7 7 6 6 6 5 5 4 3 3 3 2 3 2 2 2 9 5 4 6 9 10 11 10 9 10 17 26 27 27 27 27 27 28 28 27
9 8 8 9 8 8 7 6 6 6 6 5 5 5 4 4 3 3 3 3 3 4 3 4 7 3 6 7 10 9 10 11 9 21 25 26 27 27 28 28 29 29 28
10 9 8 8 8 8 7 6 6 6 5 5 5 4 4 5 5 4 4 5 4 4 4 5 6 8 7 8 7 10 12 9 13 12 18 19 24 26 27 29 29 27 27
9 8 9 7 7 7 6 7 7 6 6 5 4 4 5 5 7 7 4 5 5 3 4 5 6 7 7 8 10 10 10 13 13 11 13 10 13 13 14 21 21 25 27
8 8 9 9 8 6 13 16 9 6 6 5 5 5 5 5 7 12 12 12 8 4 4 3 6 8 10 9 8 11 11 11 16 8 12 15 11 12 11 11 24 28 27
9 9 9 9 9 7 16 16 15 5 5 5 5 4 4 4 6 5 10 12 12 13 14 8 9 8 11 8 12 11 13 12 13 13 13 15 11 12 11 12 24 28 31
11 10 10 9 7 7 15 16 15 6 5 6 6 5 5 5 7 7 6 7 8 9 9 7 9 8 9 10 10 11 11 11 11 11 10 13 12 12 11 12 30 28 26
8 8 6 8 9 6 17 17 13 5 7 7 6 6 6 7 12 15 8 6 8 9 10 15 15 16 16 19 17 8 5 7 10 11 10 8 8 14 11 12 10 19 23
9 7 8 8 8 7 16 17 15 4 5 5 5 7 15 12 16 15 10 8 10 7 5 1 2 6 8 9 14 8 6 6 8 8 3 8 12 11 8 7 8 13 11
Wind_Direction
124 111 88 83 80 109 91 82 74 70 64 58 60 74 67 71 67 62 41 48 48 45 42 35 31 32 30 23 18 15 12 5 9 9 13 3 336 329 318 328 334 334 324
97 100 100 97 82 73 86 98 95 91 78 75 69 59 69 82 77 69 61 42 55 48 43 40 35 30 26 25 24 21 17 19 18 11 7 7 5 355 348 318 316 323 322
94 97 86 79 87 85 87 79 66 63 64 64 57 58 75 78 75 68 59 48 41 42 40 41 35 32 28 23 20 20 22 18 16 9 3 3 360 357 358 358 315 308 305
86 91 95 92 90 89 71 61 66 65 58 60 65 55 75 78 74 69 66 56 46 43 29 39 35 30 29 27 24 20 19 24 21 15 10 3 360 358 354 350 345 340 341
79 88 88 82 82 86 83 89 60 85 70 68 82 69 57 69 68 64 60 51 45 42 32 31 32 29 27 24 23 23 26 25 18 13 7 4 358 356 354 346 338 335 341
90 98 88 87 84 89 76 69 83 58 73 80 83 70 56 54 62 56 50 47 37 36 25 26 21 16 26 23 14 15 16 14 9 6 1 356 354 350 348 345 340 337 332
93 104 100 87 76 88 96 89 95 72 37 14 106 77 49 45 57 50 44 34 28 20 28 19 14 16 10 19 19 22 14 5 1 355 352 350 348 344 340 339 336 334 332
95 97 102 102 98 103 78 71 78 97 64 6 108 106 139 4 27 49 38 32 26 11 17 14 19 16 16 14 24 15 5 358 356 353 351 347 343 342 339 336 334 331 329
94 97 98 99 90 86 90 72 86 103 126 32 51 130 105 200 332 349 29 28 15 18 4 2 16 20 29 26 24 6 2 359 355 350 349 345 340 337 335 333 330 327 325
93 92 94 95 94 92 90 83 76 98 114 119 73 47 65 111 123 342 337 348 5 10 357 1 13 25 27 24 15 3 358 355 350 348 344 340 336 333 330 328 326 325 321
86 91 92 95 95 92 82 91 74 71 61 105 99 100 62 61 57 96 289 327 352 332 340 350 4 41 29 21 8 353 352 348 346 342 337 334 332 331 326 325 325 323 321
101 92 94 93 101 98 99 92 84 83 93 89 87 74 100 116 65 69 15 300 270 293 316 324 27 43 32 16 1 353 344 343 339 336 334 331 327 327 325 324 319 317 315
128 127 115 117 108 109 100 96 94 98 97 96 99 93 87 93 126 119 127 285 302 310 311 315 46 59 22 6 348 345 343 338 334 331 329 326 326 325 323 319 315 315 319
142 134 127 120 116 109 107 107 105 106 105 100 102 96 106 92 90 99 133 139 320 298 303 267 312 50 9 352 336 341 331 333 330 331 328 326 326 323 319 321 320 313 310
135 136 132 127 127 118 123 124 120 119 111 107 113 116 115 109 99 120 117 122 155 310 288 302 303 23 6 334 329 335 325 323 329 327 327 325 322 321 320 317 318 316 312
140 144 141 136 131 131 136 127 126 133 121 126 132 127 116 128 115 108 95 118 172 192 267 261 276 315 328 319 323 325 314 321 318 322 323 321 319 321 319 317 314 312 311
154 150 148 140 143 146 145 134 144 150 137 140 138 141 141 140 139 148 134 161 198 169 261 282 280 315 303 318 319 314 312 310 312 314 317 314 316 317 316 314 311 311 307
158 155 153 148 150 155 155 157 168 163 158 161 167 153 162 152 175 182 179 203 211 215 238 287 291 304 301 312 302 305 311 307 304 305 310 313 311 311 312 309 310 307 308
161 156 153 158 166 168 166 176 175 169 172 172 171 174 177 181 206 200 198 223 210 248 233 261 287 291 294 305 308 306 307 307 302 307 307 307 308 306 308 307 308 306 309
162 166 168 167 172 168 173 173 179 174 178 181 184 188 200 208 217 217 220 222 228 222 231 253 272 290 297 308 295 313 316 313 310 306 302 304 307 307 304 303 305 305 304
171 167 162 170 169 175 178 189 182 185 181 188 198 213 220 227 236 228 205 220 222 226 237 256 273 289 300 312 319 317 308 307 305 310 313 308 310 302 298 300 297 297 293
164 161 175 178 180 191 200 202 190 187 184 190 205 221 231 239 252 255 262 267 240 193 213 216 283 289 299 309 309 309 305 323 314 311 319 306 301 300 299 296 298 301 301
170 180 183 182 195 192 206 207 207 191 185 197 206 218 230 227 233 234 256 267 275 275 270 271 287 287 295 307 304 311 316 306 299 306 307 300 303 297 298 296 303 305 306
185 186 191 194 189 207 211 213 215 178 195 210 210 212 225 235 230 236 238 236 238 240 249 262 259 267 278 299 312 310 306 303 296 294 305 290 307 299 315 306 297 300 299
184 188 184 189 196 206 210 218 217 173 205 218 213 217 225 236 244 255 254 242 247 242 249 265 280 297 307 309 310 309 302 307 305 304 305 287 316 307 305 293 288 314 320
196 187 198 197 199 204 214 221 222 173 205 220 222 233 233 237 247 252 251 242 258 252 224 268 299 296 303 299 306 297 291 289 305 308 345 323 309 327 308 289 324 306 297